This is the latest recevied weather packets stored in our database for station/object RA1AMO-10. If no packets are shown the sender has not sent any weather packets the latest 10 day(s).
| Time | Temp. | Humidity | Pressure | Rain* | Wind** | Luminosity | Snow |
|---|---|---|---|---|---|---|---|
| 1777635144 | 16.11° C | 38% | 1017.2 hPa | - | - | - | - |
| 1777634239 | 15° C | 40% | 1017.4 hPa | - | - | - | - |
| 1777633339 | 13.89° C | 39% | 1017.6 hPa | - | - | - | - |
| 1777632439 | 12.78° C | 44% | 1017.8 hPa | - | - | - | - |
| 1777631539 | 12.22° C | 46% | 1017.9 hPa | - | - | - | - |
| 1777630639 | 11.67° C | 49% | 1018.2 hPa | - | - | - | - |
| 1777629738 | 11.11° C | 52% | 1018.3 hPa | - | - | - | - |
| 1777628838 | 11.11° C | 54% | 1018.5 hPa | - | - | - | - |
| 1777627938 | 10.56° C | 55% | 1018.5 hPa | - | - | - | - |
| 1777627038 | 10.56° C | 55% | 1018.6 hPa | - | - | - | - |
| 1777626138 | 10° C | 56% | 1018.7 hPa | - | - | - | - |
| 1777625238 | 10° C | 57% | 1018.6 hPa | - | - | - | - |
| 1777624337 | 10° C | 56% | 1018.8 hPa | - | - | - | - |
| 1777623437 | 9.44° C | 59% | 1018.7 hPa | - | - | - | - |
| 1777622537 | 8.89° C | 60% | 1018.6 hPa | - | - | - | - |
| 1777621637 | 8.89° C | 64% | 1018.8 hPa | - | - | - | - |
| 1777620737 | 8.33° C | 65% | 1018.9 hPa | - | - | - | - |
| 1777619837 | 8.33° C | 65% | 1018.9 hPa | - | - | - | - |
| 1777618936 | 7.78° C | 68% | 1018.8 hPa | - | - | - | - |
| 1777618036 | 7.78° C | 71% | 1018.8 hPa | - | - | - | - |
| 1777617136 | 7.22° C | 71% | 1018.9 hPa | - | - | - | - |
| 1777616236 | 7.22° C | 74% | 1018.8 hPa | - | - | - | - |
| 1777615336 | 7.22° C | 75% | 1018.6 hPa | - | - | - | - |
| 1777614436 | 7.22° C | 75% | 1018.8 hPa | - | - | - | - |
| 1777613535 | 7.22° C | 76% | 1018.7 hPa | - | - | - | - |
* Rain since midnight (hover to see other rain measurements)
** Current wind speed in m/s (hover to see current wind gust speed)